Alabaster, AL

2:28 AM CDT on October 23, 2019 (GMT -0500)
Shelby County

Weather History for KEET - August, 2019

Change the Weather History Date:

Monday, August 5, 2019

  Actual Average Record
Temperature  
Mean Temperature 81 °F 81 °F  
Max Temperature 93 °F 91 °F 99 °F (2006)
Min Temperature 68 °F 71 °F 60 °F (1961)
Cooling Degree Days 16 16  
Month to date cooling degree days 79 80  
Year to date cooling degree days 1368 1210  
Since 1 June cooling degree days 971 941  
Growing Degree Days 30 (Base 50)    
Moisture  
Dew Point 67 °F    
Average Humidity 69    
Maximum Humidity 93    
Minimum Humidity 44    
Precipitation  
Precipitation 0.00 in 0.14 in 1.35 in (2010)
Month to date precipitation 0.10 0.71  
Year to date precipitation 31.38 34.03  
Sea Level Pressure  
Sea Level Pressure 29.95 in    
Wind  
Wind Speed 3 mph (NNW)    
Max Wind Speed 14 mph    
Max Gust Speed 18 mph    
Visibility 10 miles    
Events      
T = Trace of Precipitation, MM = Missing Value Source: NWS Daily Summary

Daily Weather History Graph

Daily Weather History Graph

Search for Another Location

Airport or City:

Astronomy

Aug. 05, 2019 Rise Set
Actual Time 6:02 AM CDT 7:42 PM CDT
Civil Twilight 5:36 AM CDT 8:09 PM CDT
Nautical Twilight 5:03 AM CDT 8:41 PM CDT
Astronomical Twilight 4:29 AM CDT 9:15 PM CDT
Moon 11:03 AM CDT (8/5) 11:11 PM CDT (8/5)
Length of Visible Light 14h 33m
Length of Day
13h 40m
Waxing Crescent, 28% of the Moon is Illuminated
Aug 5
Waxing Crescent
Aug 7
First Quarter
Aug 15
Full
Aug 23
Last Quarter
Aug 30
New

Hourly Weather History & Observations

Time (CDT) Temp. Heat Index Dew Point Humidity Pressure Visibility Wind Dir Wind Speed Gust Speed Precip Events Conditions
12:53 AM 72.0 °F - 68.0 °F 87% 29.92 in 10.0 mi Calm Calm - N/A   Clear
1:53 AM 72.0 °F - 68.0 °F 87% 29.94 in 10.0 mi Calm Calm - N/A   Clear
2:53 AM 71.1 °F - 66.9 °F 87% 29.95 in 10.0 mi Calm Calm - N/A   Clear
3:53 AM 71.1 °F - 66.9 °F 87% 29.95 in 10.0 mi Calm Calm - N/A   Clear
4:53 AM 70.0 °F - 66.9 °F 90% 29.96 in 10.0 mi NW 3.5 mph - N/A   Clear
5:53 AM 69.1 °F - 66.9 °F 93% 29.98 in 10.0 mi Calm Calm - N/A   Clear
6:53 AM 70.0 °F - 66.9 °F 90% 29.99 in 10.0 mi Calm Calm - N/A   Clear
7:53 AM 73.9 °F - 66.9 °F 79% 30.00 in 10.0 mi Variable 3.5 mph - N/A   Clear
8:53 AM 77.0 °F - 66.9 °F 71% 29.99 in 10.0 mi Calm Calm - N/A   Clear
9:53 AM 81.0 °F 83.3 °F 66.9 °F 62% 30.00 in 10.0 mi North 6.9 mph - N/A   Clear
10:53 AM 84.0 °F 86.5 °F 66.9 °F 56% 29.99 in 10.0 mi Variable 4.6 mph - N/A   Clear
11:53 AM 84.9 °F 87.6 °F 66.9 °F 55% 29.97 in 10.0 mi NW 5.8 mph - N/A   Partly Cloudy
12:53 PM 87.1 °F 89.2 °F 66.0 °F 49% 29.97 in 10.0 mi Calm Calm - N/A   Scattered Clouds
1:53 PM 89.1 °F 91.3 °F 66.0 °F 46% 29.95 in 10.0 mi North 5.8 mph - N/A   Partly Cloudy
2:53 PM 90.0 °F 91.7 °F 64.9 °F 43% 29.92 in 10.0 mi Variable 4.6 mph - N/A   Partly Cloudy
3:53 PM 90.0 °F 91.7 °F 64.9 °F 43% 29.91 in 10.0 mi WNW 5.8 mph - N/A   Partly Cloudy
4:53 PM 90.0 °F 91.7 °F 64.9 °F 43% 29.91 in 10.0 mi North 6.9 mph - N/A   Partly Cloudy
5:53 PM 88.0 °F 89.6 °F 64.9 °F 46% 29.90 in 10.0 mi North 6.9 mph - N/A   Partly Cloudy
6:53 PM 89.1 °F 91.0 °F 64.9 °F 45% 29.91 in 10.0 mi Variable 4.6 mph - N/A   Clear
7:53 PM 82.0 °F 85.9 °F 70.0 °F 67% 29.92 in 10.0 mi WNW 3.5 mph - N/A   Clear
8:53 PM 78.1 °F - 70.0 °F 76% 29.94 in 10.0 mi Calm Calm - N/A   Clear
9:53 PM 75.9 °F - 71.1 °F 85% 29.94 in 10.0 mi Calm Calm - N/A   Clear
10:53 PM 75.0 °F - 70.0 °F 84% 29.94 in 10.0 mi Calm Calm - N/A   Clear
11:53 PM 73.0 °F - 71.1 °F 93% 29.93 in 10.0 mi Calm Calm - N/A   Clear